#timestamp,LO_Frequency,Hit,StdDev 
1589871615.5,286046998.3,N
1589871635.3,286046998.1,N
1589871655.2,286046999.5,N
1589871675.0,286046998.4,N
1589871675.9,286046998.4,N
1589871695.7,286047000.4,N
1589871715.6,286047000.9,N
1589871735.4,286046999.4,N
1589871755.3,286046999.9,N
1589871775.1,286046998.1,N
1589871776.0,286046998.1,N
1589871795.8,286047000.6,N
1589871815.7,286047001.1,N
1589871835.5,286046998.4,N
1589871855.3,286046996.8,N
1589871875.2,286046997.7,N
1589871895.0,286046995.3,N
1589871895.9,286046995.3,N
1589871915.8,286046997.8,N
1589871935.6,286046995.3,N
1589871955.4,286046996.8,N
1589871975.3,286046996.7,N
1589871995.1,286046997.5,N
1589872015.8,286046998.0,N
1589872035.7,286046998.0,N
1589872055.5,286046996.7,N
1589872075.4,286046997.0,N
1589872095.2,286046999.5,N
1589872115.0,286047000.9,N
1589872115.9,286047000.9,N
1589872135.8,286046999.8,N
1589872155.6,286047002.2,N
1589872175.4,286047002.4,N
1589872195.3,286046998.5,N
1589872215.1,286046999.4,N
1589872235.9,286046998.6,N
1589872255.7,286046999.8,N
1589872275.5,286047000.5,N
1589872295.4,286047000.1,N
1589872315.2,286047000.0,N
1589872335.0,286046999.8,N
1589872335.9,286046999.8,N
1589872355.8,286047002.6,N
1589872375.6,286047000.5,N
1589872395.5,286046998.8,N
1589872415.3,286047000.6,N
1589872435.1,286047000.0,N
1589872455.9,286047000.9,N
1589872475.7,286047000.1,N
1589872495.5,286046999.9,N
1589872515.4,286046999.8,N
1589872535.2,286047001.2,N
1589872555.1,286047000.6,N
1589872556.0,286047000.6,N
1589872575.8,286047001.5,N
1589872595.6,286047001.5,N
1589872615.5,286047002.3,N
1589872635.3,286046999.8,N
1589872655.1,286046999.9,N
1589872675.9,286047003.9,Y
1589872695.7,286047002.3,P
1589872715.6,286047003.8,P
1589872735.4,286047005.4,P
1589872755.2,286047004.8,N
1589872775.1,286047006.6,Y
1589872776.0,286047006.6,P
1589872795.8,286047003.4,N
1589872815.6,286047005.5,P
1589872835.5,286047003.4,N
1589872855.3,286047003.1,N
1589872875.2,286047003.8,N
1589872895.9,286047003.3,N
1589872915.7,286047006.0,Y
1589872935.6,286046999.8,P
1589872955.4,286046998.3,N
1589872975.2,286046997.6,N
1589872995.1,286046997.8,N
1589872996.0,286046997.8,N
1589873015.8,286046999.5,N
1589873035.7,286046996.7,N
1589873055.5,286046995.2,N
1589873075.3,286046995.9,N
1589873095.2,286046994.9,N
1589873115.0,286046995.6,N
1589873115.9,286046995.6,N
1589873135.7,286046997.9,N
1589873155.6,286046996.8,N
1589873175.4,286046998.5,N
1589873195.3,286046997.3,N
1589873215.1,286046996.9,N
1589873216.0,286046996.9,N
1589873235.8,286047000.7,N
1589873255.7,286047000.7,N
1589873275.5,286047001.0,N
1589873295.3,286046998.5,N
1589873315.2,286046996.9,N
1589873335.0,286046996.7,N
1589873335.9,286046996.7,N
1589873355.8,286046998.8,N
1589873375.6,286046996.6,N
1589873395.4,286046997.9,N
1589873415.3,286046997.6,N
1589873435.1,286046997.7,N
1589873455.8,286046997.3,N
1589873475.7,286046996.7,N
1589873495.5,286046997.4,N
1589873515.4,286046996.7,N
1589873535.2,286046998.4,N
1589873555.0,286046998.7,N
1589873555.9,286046998.7,N
1589873575.8,286046996.5,N
1589873595.6,286046996.6,N
1589873615.4,286046998.3,N
1589873635.3,286047000.5,N
1589873655.1,286046998.2,N
1589873675.8,286046997.1,N
1589873695.7,286046997.5,N
1589873715.5,286046996.7,N
1589873735.4,286046999.4,N
1589873755.2,286046999.0,N
1589873775.0,286047000.7,N
1589873775.9,286047000.7,N
1589873795.8,286047000.0,N
1589873815.6,286046999.7,N
1589873835.4,286047000.6,N
1589873855.3,286047000.8,N
1589873875.1,286047001.0,N
1589873895.9,286047000.3,N
1589873915.7,286046999.9,N
1589873935.5,286047000.5,N
1589873955.4,286047000.3,N
1589873975.2,286046999.8,N
1589873995.0,286047000.7,N
1589873995.9,286047000.7,N
1589874015.8,286047001.0,N
1589874035.6,286047002.7,N
1589874055.5,286047002.2,N
1589874075.3,286047004.4,N
1589874095.1,286047003.8,N
1589874115.9,286047001.6,N
1589874135.7,286047002.4,N
1589874155.5,286047000.3,N
1589874175.4,286047000.0,N
1589874195.2,286047000.8,N
1589874215.0,286046999.1,N
1589874216.0,286046999.1,N
1589874235.8,286047001.2,N
1589874255.6,286047000.2,N
1589874275.5,286047002.0,N
1589874295.3,286047002.2,N
1589874315.1,286046999.8,N
1589874335.9,286047000.4,N
1589874355.7,286047000.4,N
1589874375.6,286046998.2,N
1589874395.4,286047000.7,N
1589874415.2,286046999.4,N
1589874435.1,286046999.3,N
1589874436.0,286046999.3,N
1589874455.8,286046997.1,N
1589874475.6,286046995.3,Y
1589874495.5,286046998.0,P
1589874515.3,286046995.2,P
1589874535.2,286046999.6,N
1589874555.9,286046996.8,N
1589874575.7,286046999.6,N
1589874595.6,286046996.7,N
1589874615.4,286046995.5,N
1589874635.2,286046996.4,N
1589874655.1,286046996.1,N
1589874656.0,286046996.1,N
1589874675.8,286046998.0,N
1589874695.7,286046997.7,N
1589874715.5,286046997.8,N
1589874735.3,286046996.8,N
1589874755.2,286046996.9,N
1589874775.0,286046995.0,Y
1589874775.9,286046995.0,P
1589874795.8,286047001.2,N
1589874815.6,286047001.2,N
1589874835.4,286047000.0,N
1589874855.3,286047000.9,N
1589874875.1,286047000.7,N
1589874895.9,286047000.2,N
1589874915.7,286046996.5,N
1589874935.5,286046998.9,N
1589874955.4,286046999.0,N
1589874975.2,286046997.1,N
1589874995.0,286046999.1,N
1589874995.9,286046999.1,N
1589875015.8,286046996.6,N
1589875035.6,286046996.9,N
1589875055.5,286046998.7,N
1589875075.3,286046999.4,N
1589875095.1,286046998.1,N
1589875115.9,286046997.1,N
1589875135.7,286046996.9,N
1589875155.5,286046997.6,N
1589875175.4,286046996.0,N
1589875195.2,286046996.4,N
